Location: Wallasey
(53.4265°N, 3.0662°W)
Time: 10:38:58
(UTC+01:00)

PCSat - Visible Passes

Search period start: 21 August 2019 00:00
Search period end: 31 August 2019 00:00
Orbit: 784 x 795 km, 67.1° (Epoch: 21 August)

Date Brightness Start Highest point End Pass type
(mag) Time Alt. Az. Time Alt. Az. Time Alt. Az.
21 Aug 10.8 01:01:11 10° NW 01:06:19 40° NE 01:10:45 13° ESE visible
21 Aug 9.6 02:44:38 10° NW 02:50:00 59° WSW 02:51:23 45° S visible
21 Aug 11.4 04:30:23 10° W 04:32:00 12° W 04:32:00 12° W visible
21 Aug 11.9 21:00:34 10° WNW 21:04:59 24° NNW 21:09:22 10° NE visible
21 Aug 12.0 22:46:15 10° NW 22:50:13 20° N 22:54:10 10° NE visible
22 Aug 11.0 00:30:13 10° NNW 00:35:11 34° NNE 00:39:35 13° E visible
22 Aug 9.4 02:13:37 10° NW 02:19:04 75° SW 02:20:13 55° SSE visible
22 Aug 11.2 03:58:24 10° WNW 04:00:51 16° W 04:00:51 16° W visible
22 Aug 12.0 22:15:01 10° NW 22:18:55 19° N 22:22:49 10° NE visible
22 Aug 11.2 23:59:13 10° NNW 00:04:00 30° NNE 00:08:35 11° E visible
23 Aug 9.5 01:42:37 10° NW 01:48:06 88° NE 01:49:13 58° SE visible
23 Aug 11.0 03:26:53 10° WNW 03:29:52 20° W 03:29:52 20° W visible
23 Aug 12.0 21:43:44 10° NW 21:47:38 19° N 21:51:32 10° NE visible
23 Aug 11.4 23:28:14 10° NNW 23:32:48 26° NNE 23:37:23 10° E visible
24 Aug 9.7 01:11:38 10° NW 01:17:06 72° NE 01:18:22 52° ESE visible
24 Aug 10.8 02:55:34 10° NW 02:59:01 25° W 02:59:01 25° W visible
24 Aug 11.9 21:12:24 10° NW 21:16:20 20° N 21:20:18 10° NE visible
24 Aug 11.5 22:57:11 10° NW 23:01:35 24° NNE 23:05:58 10° ENE visible
25 Aug 10.0 00:40:40 10° NW 00:46:04 59° NE 00:47:36 43° E visible
25 Aug 10.5 02:24:22 10° NW 02:28:16 32° W 02:28:16 32° W visible
25 Aug 11.6 22:26:07 10° NW 22:30:19 22° NNE 22:34:33 10° ENE visible
26 Aug 10.3 00:09:42 10° NW 00:14:59 48° NE 00:16:55 34° E visible
26 Aug 10.2 01:53:15 10° NW 01:57:35 41° W 01:57:35 41° W visible
26 Aug 11.7 21:55:00 10° NW 21:59:04 21° N 22:03:08 10° ENE visible
26 Aug 10.6 23:38:44 10° NW 23:43:53 41° NE 23:46:17 27° E visible
27 Aug 9.8 01:22:11 10° NW 01:26:58 54° W 01:26:58 54° W visible
27 Aug 11.7 21:23:49 10° NW 21:27:47 20° N 21:31:45 10° NE visible
27 Aug 10.8 23:07:45 10° NNW 23:12:44 35° NNE 23:15:43 20° E visible
28 Aug 9.5 00:51:09 10° NW 00:56:24 71° WSW 00:56:24 71° WSW visible
28 Aug 11.7 02:36:02 10° WNW 02:37:04 13° W 02:37:04 13° W visible
28 Aug 11.8 20:52:36 10° NW 20:56:30 19° N 21:00:25 10° NE visible
28 Aug 11.0 22:36:46 10° NNW 22:41:35 30° NNE 22:45:12 15° E visible
29 Aug 9.4 00:20:09 10° NW 00:25:39 89° S 00:25:52 83° SE visible
29 Aug 11.5 02:04:29 10° WNW 02:06:33 17° W 02:06:33 17° W visible
29 Aug 11.2 22:05:46 10° NNW 22:10:22 27° NNE 22:14:42 11° E visible
29 Aug 9.6 23:49:10 10° NW 23:54:38 74° NE 23:55:23 63° ESE visible
30 Aug 11.2 01:33:09 10° WNW 01:36:04 23° W 01:36:04 23° W visible
30 Aug 11.3 21:34:44 10° NW 21:39:09 24° NNE 21:43:34 10° ENE visible
30 Aug 9.9 23:18:11 10° NW 23:23:36 60° NE 23:24:57 46° E visible
